Torna al catalogo

STARLINK-34644

AttivoComunicazioniVLEO
NORAD 64812·PAYLOAD·🇺🇸 United States

Lanciato Jul 16, 2025 da Vandenberg Space Force Base

Loading…

Prossimi Passaggi (prossime 24 ore)

TLE

AggiornatoSource: CelesTrak SupGP

Epoca: Sep 14, 2026, 22:51 UTC

1 64812C 25150Y   26257.95256944 -.00052263  00000+0 -43796-2 0  2577
2 64812  70.0030  17.3167 0003331 271.7379  92.7309 14.98358337    16

Traccia STARLINK-34644 in tempo reale con AllMySat

Download on the App Store